�N����,����,�~����,�C��,���x,�C��,����,���ϕ���,�ő�u�ԕ���,�ő厞����,���˗�,�I�_���x,�n�����x,�ő啗���N��,DTYPE
"21/08/27","00:10",0.0,26.2,86.3,1008.8,332.8,1.3,2.5,346.0,0.00,23.8,27.1,"00:09:12",1
"21/08/27","00:20",0.0,26.4,86.3,1008.8,333.8,2.0,3.3,341.7,0.00,24.0,27.3,"00:13:52",1
"21/08/27","00:30",0.0,26.6,85.9,1009.0,326.1,1.7,2.6,340.5,0.00,24.1,27.0,"00:23:20",1
"21/08/27","00:40",0.0,26.7,85.7,1008.3,320.1,0.8,1.8,331.0,0.00,24.1,27.0,"00:30:08",1
"21/08/27","00:50",0.0,26.6,85.8,1008.6,331.2,1.5,2.4,329.7,0.00,24.1,27.2,"00:46:00",1
"21/08/27","01:00",0.0,26.5,86.1,1008.6,331.0,1.1,2.0,345.3,0.00,24.0,27.1,"00:50:48",1
"21/08/27","01:10",0.0,26.5,86.3,1008.6,346.7,1.0,2.0,339.4,0.00,24.1,27.1,"01:02:00",1
"21/08/27","01:20",0.0,26.3,86.3,1008.3,337.3,1.5,2.4,350.7,0.00,23.9,27.1,"01:13:04",1
"21/08/27","01:30",0.0,26.4,86.2,1008.3,328.8,2.0,3.1,348.2,0.00,23.9,27.0,"01:22:56",1
"21/08/27","01:40",0.0,26.3,86.1,1008.1,334.9,1.3,2.4,334.2,0.00,23.8,26.7,"01:31:52",1
"21/08/27","01:50",0.0,26.2,86.3,1008.1,338.3,1.2,2.0,331.6,0.00,23.8,27.2,"01:41:12",1
"21/08/27","02:00",0.0,26.2,86.5,1007.8,336.7,1.2,2.0,348.8,0.00,23.8,27.0,"01:54:32",1
"21/08/27","02:10",0.0,26.2,86.7,1007.8,328.2,1.7,3.5,345.3,0.00,23.8,27.0,"02:03:44",1
"21/08/27","02:20",0.0,26.2,86.9,1007.6,337.8,1.5,2.1,337.0,0.00,23.9,26.8,"02:10:40",1
"21/08/27","02:30",0.0,26.1,87.0,1007.8,337.5,1.3,2.5,340.6,0.00,23.8,26.7,"02:25:20",1
"21/08/27","02:40",0.0,26.2,87.1,1008.1,328.7,1.6,2.4,332.9,0.00,23.9,27.0,"02:39:52",1
"21/08/27","02:50",0.0,26.1,87.2,1007.8,325.8,1.3,2.5,339.2,0.00,23.8,27.0,"02:45:20",1
"21/08/27","03:00",0.0,26.0,87.3,1008.1,335.7,1.1,2.1,345.6,0.00,23.8,26.7,"02:50:56",1
"21/08/27","03:10",0.0,25.9,87.5,1007.8,344.0,1.2,2.1,329.0,0.00,23.7,26.7,"03:04:56",1
"21/08/27","03:20",0.0,25.8,87.8,1008.1,343.0,1.0,1.8,336.2,0.00,23.7,26.7,"03:11:36",1
"21/08/27","03:30",0.0,25.7,88.0,1007.8,338.0,0.8,1.7,347.6,0.00,23.6,26.6,"03:20:32",1
"21/08/27","03:40",0.0,25.6,88.4,1007.8,336.6,1.1,1.9,329.1,0.00,23.6,26.7,"03:38:48",1
"21/08/27","03:50",0.0,25.7,88.9,1008.1,340.6,1.6,3.4,347.2,0.00,23.8,26.8,"03:46:00",1
"21/08/27","04:00",0.0,25.8,89.1,1008.3,331.2,1.3,2.6,306.5,0.00,23.9,26.8,"03:54:08",1
"21/08/27","04:10",0.0,25.8,89.2,1008.1,333.4,1.6,2.7,343.5,0.00,23.9,26.7,"04:00:24",1
"21/08/27","04:20",0.0,25.7,89.3,1008.1,340.2,0.8,1.7,334.8,0.00,23.8,26.7,"04:19:52",1
"21/08/27","04:30",0.0,25.6,89.4,1008.3,319.3,1.1,1.8,324.5,0.00,23.8,26.7,"04:29:44",1
"21/08/27","04:40",0.0,25.5,89.7,1008.6,331.3,1.7,3.1,324.7,0.00,23.7,26.9,"04:31:04",1
"21/08/27","04:50",0.0,25.5,89.9,1008.3,335.4,1.3,2.2,339.4,0.00,23.8,26.7,"04:47:36",1
"21/08/27","05:00",0.0,25.4,90.0,1008.3,332.3,1.5,2.1,329.8,0.00,23.7,26.6,"04:57:28",1
"21/08/27","05:10",0.0,25.4,90.2,1008.6,333.7,1.3,2.7,334.2,0.00,23.7,26.7,"05:07:36",1
"21/08/27","05:20",0.0,25.3,90.2,1008.6,333.0,1.2,2.4,334.8,0.00,23.6,26.7,"05:10:08",1
"21/08/27","05:30",0.0,25.1,90.4,1008.6,338.0,1.3,2.2,347.7,0.00,23.5,26.6,"05:29:36",1
"21/08/27","05:40",0.0,25.0,90.6,1009.0,343.0,1.3,2.6,351.3,0.00,23.4,26.7,"05:33:44",1
"21/08/27","05:50",0.0,24.9,90.7,1008.8,347.6,1.1,2.1,340.8,0.00,23.3,26.6,"05:41:44",1
"21/08/27","06:00",0.0,24.8,90.9,1009.0,342.0,1.0,1.8,353.1,0.00,23.3,26.4,"05:56:32",1
"21/08/27","06:10",0.0,24.8,91.2,1009.0,336.7,1.6,2.6,344.4,0.00,23.3,26.4,"06:06:24",1
"21/08/27","06:20",0.0,24.7,91.4,1008.8,330.4,1.3,2.0,337.9,0.00,23.2,26.4,"06:12:56",1
"21/08/27","06:30",0.0,24.7,91.6,1009.0,329.8,1.5,2.1,327.1,0.00,23.3,26.5,"06:21:44",1
"21/08/27","06:40",0.0,25.0,91.8,1009.0,334.5,1.7,3.4,338.5,0.01,23.6,26.5,"06:33:28",1
"21/08/27","06:50",0.0,25.3,91.7,1009.3,335.8,1.8,3.1,324.4,0.03,23.9,26.7,"06:40:40",1
"21/08/27","07:00",0.0,25.6,91.5,1009.0,334.6,1.6,2.9,327.3,0.04,24.2,26.7,"06:55:28",1
"21/08/27","07:10",0.0,25.7,91.1,1009.5,329.7,1.6,3.4,344.2,0.04,24.2,26.4,"07:09:52",1
"21/08/27","07:20",0.0,25.9,90.7,1009.3,329.1,1.7,3.9,341.7,0.06,24.3,26.7,"07:11:52",1
"21/08/27","07:30",0.0,26.2,90.2,1009.0,325.7,1.6,3.6,346.0,0.07,24.5,26.4,"07:26:00",1
"21/08/27","07:40",0.0,26.4,89.3,1009.0,332.2,1.1,2.6,341.2,0.05,24.5,26.4,"07:33:12",1
"21/08/27","07:50",0.0,26.9,88.6,1008.8,354.0,0.8,2.5,343.0,0.09,24.9,26.6,"07:40:56",1
"21/08/27","08:00",0.0,27.3,87.3,1008.6,14.2,0.6,1.3,27.2,0.08,25.0,26.5,"07:50:24",1
"21/08/27","08:10",0.0,27.5,85.9,1008.3,354.4,0.3,0.9,359.8,0.06,25.0,26.3,"08:00:08",1
"21/08/27","08:20",0.0,28.0,84.5,1008.3,43.1,0.3,0.8,8.7,0.14,25.2,26.4,"08:10:08",1
"21/08/27","08:30",0.0,29.2,81.3,1008.3,131.8,0.3,1.2,116.1,0.25,25.7,26.4,"08:20:02",1
"21/08/27","08:40",0.0,29.2,77.2,1008.8,67.1,0.6,1.6,126.4,0.11,24.8,26.4,"08:38:00",1
"21/08/27","08:50",0.0,29.3,75.2,1008.8,20.8,0.7,2.1,340.4,0.15,24.5,26.5,"08:49:20",1
"21/08/27","09:00",0.0,30.1,73.7,1009.0,272.3,0.6,1.4,209.4,0.35,24.9,26.5,"08:59:20",1
"21/08/27","09:10",0.0,30.3,71.0,1009.5,226.2,1.5,3.3,220.9,0.38,24.5,26.4,"09:09:12",1
"21/08/27","09:20",0.0,30.3,69.7,1009.3,210.8,2.1,4.4,220.6,0.38,24.2,26.4,"09:17:20",1
"21/08/27","09:30",0.0,30.1,69.3,1009.3,222.0,1.6,2.9,235.9,0.27,23.9,26.6,"09:23:12",1
"21/08/27","09:40",0.0,31.0,67.6,1009.7,187.8,1.2,2.5,179.8,0.44,24.3,26.5,"09:34:48",1
"21/08/27","09:50",0.0,31.2,63.5,1010.0,331.7,0.8,2.2,334.8,0.34,23.5,26.7,"09:48:08",1
"21/08/27","10:00",0.0,30.4,64.2,1009.5,19.6,0.8,2.8,349.9,0.14,22.9,26.6,"09:54:56",1
"21/08/27","10:10",0.0,31.0,62.1,1009.7,358.2,1.1,2.7,347.8,0.49,22.9,26.7,"10:06:24",1
"21/08/27","10:20",0.0,32.6,60.6,1010.0,137.4,0.6,1.3,177.9,0.51,24.0,26.9,"10:14:08",1
"21/08/27","10:30",0.0,32.6,60.0,1010.4,179.1,1.3,3.9,219.4,0.53,23.9,26.8,"10:24:16",1
"21/08/27","10:40",0.0,31.8,58.9,1010.7,245.6,1.0,3.5,180.6,0.27,22.8,26.9,"10:32:00",1
"21/08/27","10:50",0.0,31.9,60.7,1010.2,114.7,0.6,2.5,330.0,0.40,23.4,26.9,"10:49:52",1
"21/08/27","11:00",0.0,32.0,57.3,1010.0,301.8,1.2,3.3,231.5,0.41,22.5,26.8,"10:59:36",1
"21/08/27","11:10",0.0,32.0,54.4,1010.0,244.8,1.3,4.5,241.3,0.53,21.7,27.0,"11:09:12",1
"21/08/27","11:20",0.0,32.3,54.7,1009.5,240.9,1.8,4.5,219.6,0.54,22.1,27.2,"11:16:56",1
"21/08/27","11:30",0.0,32.7,51.5,1009.7,243.0,1.5,4.3,238.5,0.56,21.4,26.9,"11:21:12",1
"21/08/27","11:40",0.0,33.2,51.1,1009.7,204.4,1.7,3.1,213.7,0.56,21.8,27.2,"11:36:40",1
"21/08/27","11:50",0.0,33.6,48.9,1009.7,206.0,1.3,3.6,228.9,0.56,21.4,27.0,"11:49:20",1
"21/08/27","12:00",0.0,33.0,48.7,1009.7,221.5,2.3,5.5,217.9,0.56,20.8,27.2,"11:53:12",1
"21/08/27","12:10",0.0,33.3,51.3,1009.3,197.4,2.0,4.4,224.0,0.56,21.9,27.2,"12:00:02",1
"21/08/27","12:20",0.0,33.4,50.3,1009.0,221.2,2.2,4.1,223.0,0.56,21.7,27.3,"12:17:12",1
"21/08/27","12:30",0.0,33.7,51.5,1009.3,207.7,1.7,4.2,234.5,0.56,22.4,27.5,"12:29:52",1
"21/08/27","12:40",0.0,33.7,49.9,1009.3,216.8,2.1,4.1,231.3,0.56,21.8,27.5,"12:30:08",1
"21/08/27","12:50",0.0,33.8,48.3,1008.8,220.2,2.1,4.1,241.9,0.56,21.4,27.9,"12:43:12",1
"21/08/27","13:00",0.0,33.8,47.8,1009.0,194.2,2.2,4.5,217.4,0.55,21.2,27.5,"12:52:00",1
"21/08/27","13:10",0.0,33.9,45.8,1008.6,229.1,2.5,4.2,236.1,0.55,20.6,27.7,"13:04:32",1
"21/08/27","13:20",0.0,34.4,45.8,1008.3,262.5,1.5,4.1,210.9,0.54,21.1,27.7,"13:14:56",1
"21/08/27","13:30",0.0,34.7,41.2,1009.0,249.5,1.0,2.2,199.9,0.54,19.6,27.6,"13:29:44",1
"21/08/27","13:40",0.0,35.0,42.0,1008.6,225.3,2.2,4.1,218.9,0.53,20.2,27.7,"13:39:04",1
"21/08/27","13:50",0.0,34.6,39.4,1008.8,252.4,2.3,5.6,241.4,0.52,18.8,27.9,"13:48:48",1
"21/08/27","14:00",0.0,34.7,40.6,1008.3,223.2,2.6,6.0,239.4,0.51,19.4,27.8,"13:54:08",1
"21/08/27","14:10",0.0,34.6,40.4,1008.6,230.1,2.8,5.6,234.1,0.49,19.2,27.8,"14:00:32",1
"21/08/27","14:20",0.0,34.5,41.0,1008.6,237.6,2.5,5.4,237.8,0.48,19.4,27.9,"14:19:52",1
"21/08/27","14:30",0.0,34.7,41.0,1008.3,241.2,2.2,6.0,230.3,0.47,19.6,28.2,"14:21:04",1
"21/08/27","14:40",0.0,34.8,40.7,1008.3,234.4,2.2,4.8,249.2,0.45,19.5,28.2,"14:32:40",1
"21/08/27","14:50",0.0,34.9,40.9,1008.1,231.4,2.3,5.7,214.9,0.43,19.7,28.1,"14:41:04",1
"21/08/27","15:00",0.0,35.0,39.9,1008.1,226.5,2.2,4.5,230.9,0.42,19.4,28.0,"14:54:56",1
"21/08/27","15:10",0.0,35.3,40.0,1008.3,225.1,1.6,4.3,220.0,0.39,19.7,28.3,"15:08:16",1
"21/08/27","15:20",0.0,35.1,40.4,1008.1,258.6,1.7,5.0,219.0,0.38,19.7,28.2,"15:18:48",1
"21/08/27","15:30",0.0,35.0,39.7,1008.1,221.8,2.5,5.2,203.5,0.35,19.3,28.2,"15:25:04",1
"21/08/27","15:40",0.0,35.0,40.2,1008.1,228.4,2.0,4.0,224.1,0.33,19.5,28.4,"15:38:00",1
"21/08/27","15:50",0.0,35.0,38.4,1008.1,220.5,1.7,4.3,205.6,0.31,18.8,28.3,"15:41:36",1
"21/08/27","16:00",0.0,35.3,40.6,1008.3,241.6,1.2,4.0,191.8,0.29,19.9,28.3,"15:52:24",1
"21/08/27","16:10",0.0,35.1,38.4,1008.1,222.7,1.7,3.5,239.9,0.26,18.9,28.2,"16:03:36",1
"21/08/27","16:20",0.0,34.9,35.9,1008.1,245.3,1.6,3.5,227.5,0.24,17.6,28.1,"16:10:48",1
"21/08/27","16:30",0.0,34.9,41.9,1008.1,229.5,1.5,3.9,236.3,0.21,20.1,28.1,"16:22:16",1
"21/08/27","16:40",0.0,34.8,37.3,1007.6,253.7,1.3,2.9,246.7,0.19,18.1,28.5,"16:34:32",1
"21/08/27","16:50",0.0,35.0,36.6,1007.8,259.6,1.1,2.7,350.9,0.16,18.0,28.2,"16:44:08",1
"21/08/27","17:00",0.0,35.1,39.3,1007.8,278.2,0.7,1.9,237.4,0.14,19.2,28.1,"16:54:32",1
"21/08/27","17:10",0.0,35.1,37.9,1007.8,271.1,0.8,1.8,335.6,0.11,18.7,28.2,"17:08:08",1
"21/08/27","17:20",0.0,34.6,38.7,1007.8,314.1,0.7,2.2,331.0,0.09,18.5,28.3,"17:14:00",1
"21/08/27","17:30",0.0,34.8,42.0,1007.8,303.6,0.5,1.7,352.4,0.07,20.0,28.2,"17:28:00",1
"21/08/27","17:40",0.0,33.7,44.4,1008.1,345.4,1.1,2.2,345.2,0.05,19.9,28.4,"17:33:36",1
"21/08/27","17:50",0.0,33.2,47.7,1007.4,298.6,0.3,1.2,329.0,0.03,20.6,28.5,"17:45:20",1
"21/08/27","18:00",0.0,32.2,51.3,1007.6,320.1,1.0,2.4,353.9,0.02,20.9,28.4,"17:58:08",1
"21/08/27","18:10",0.0,30.9,54.5,1006.4,340.1,1.3,2.9,348.8,0.00,20.7,28.3,"18:00:32",1
"21/08/27","18:20",0.0,30.2,58.6,1006.2,348.9,1.3,3.6,348.3,0.00,21.2,28.5,"18:18:32",1
"21/08/27","18:30",0.0,29.7,60.1,1006.4,345.9,1.1,2.1,348.8,0.00,21.2,28.3,"18:23:20",1
"21/08/27","18:40",0.0,29.3,61.3,1006.0,330.0,1.0,2.1,346.2,0.00,21.1,28.3,"18:33:04",1
"21/08/27","18:50",0.0,28.9,62.8,1005.5,312.3,1.0,1.7,309.3,0.00,21.1,28.2,"18:49:28",1
"21/08/27","19:00",0.0,28.6,64.1,1005.2,329.2,1.1,2.1,319.9,0.00,21.2,28.3,"18:51:12",1
"21/08/27","19:10",0.0,28.2,65.3,1006.0,338.1,1.1,2.4,350.5,0.00,21.1,28.1,"19:02:24",1
"21/08/27","19:20",0.0,27.9,66.1,1006.2,337.3,1.5,2.4,357.2,0.00,21.0,28.0,"19:10:48",1
"21/08/27","19:30",0.0,27.7,66.7,1006.4,335.3,1.1,2.4,339.7,0.00,21.0,28.2,"19:22:24",1
"21/08/27","19:40",0.0,27.5,67.5,1006.7,256.0,0.7,1.6,250.8,0.00,21.0,28.0,"19:38:08",1
"21/08/27","19:50",0.0,27.5,68.4,1006.7,326.5,1.7,3.4,327.2,0.00,21.2,28.1,"19:47:28",1
"21/08/27","20:00",0.0,27.2,70.0,1007.1,331.1,1.7,3.4,343.3,0.00,21.3,27.8,"19:51:36",1
"21/08/27","20:10",0.0,26.9,71.3,1007.1,295.9,0.8,1.8,309.6,0.00,21.3,27.7,"20:09:36",1
"21/08/27","20:20",0.0,26.8,72.3,1007.4,315.0,1.0,1.8,339.9,0.00,21.4,27.9,"20:11:36",1
"21/08/27","20:30",0.0,26.6,73.2,1007.6,298.9,0.8,1.6,323.7,0.00,21.4,27.9,"20:21:20",1
"21/08/27","20:40",0.0,26.4,74.1,1007.6,300.2,0.7,1.6,324.6,0.00,21.5,27.9,"20:32:40",1
"21/08/27","20:50",0.0,26.2,75.6,1007.8,339.6,1.2,1.8,345.7,0.00,21.6,27.8,"20:42:16",1
"21/08/27","21:00",0.0,26.0,76.8,1007.8,344.2,1.0,1.9,343.9,0.00,21.7,27.6,"20:52:24",1
"21/08/27","21:10",0.0,26.1,77.7,1007.8,354.5,1.2,2.7,338.3,0.00,21.9,27.5,"21:01:52",1
"21/08/27","21:20",0.0,25.8,78.3,1008.1,349.6,0.6,1.6,347.3,0.00,21.8,27.9,"21:10:24",1
"21/08/27","21:30",0.0,25.4,79.1,1008.1,278.8,0.6,1.8,326.0,0.00,21.6,27.7,"21:26:40",1
"21/08/27","21:40",0.0,25.4,80.0,1008.3,331.1,0.6,1.8,330.4,0.00,21.7,27.8,"21:33:28",1
"21/08/27","21:50",0.0,25.4,80.7,1007.8,310.9,0.7,1.4,332.1,0.00,21.9,27.6,"21:45:20",1
"21/08/27","22:00",0.0,25.3,81.3,1008.1,290.5,1.0,1.4,342.8,0.00,21.9,27.5,"21:54:00",1
"21/08/27","22:10",0.0,25.4,81.7,1008.3,320.1,1.0,2.4,326.6,0.00,22.1,27.6,"22:06:08",1
"21/08/27","22:20",0.0,25.5,82.2,1008.3,341.2,1.1,2.6,342.4,0.00,22.3,27.4,"22:19:28",1
"21/08/27","22:30",0.0,25.5,82.2,1008.3,341.0,1.7,3.4,345.3,0.00,22.3,27.5,"22:25:52",1
"21/08/27","22:40",0.0,25.4,82.4,1008.3,339.6,1.5,2.6,342.3,0.00,22.2,27.4,"22:32:16",1
"21/08/27","22:50",0.0,25.3,82.4,1008.3,306.5,1.2,2.2,337.4,0.00,22.1,27.4,"22:40:56",1
"21/08/27","23:00",0.0,25.1,82.4,1008.3,296.3,0.7,1.0,306.1,0.00,21.9,27.3,"22:50:08",1
"21/08/27","23:10",0.0,25.0,82.6,1008.3,320.0,1.1,2.9,344.1,0.00,21.9,27.5,"23:07:36",1
"21/08/27","23:20",0.0,24.8,82.5,1007.8,338.1,1.1,2.4,344.4,0.00,21.7,27.2,"23:17:44",1
"21/08/27","23:30",0.0,24.8,82.5,1008.6,337.3,1.5,2.4,341.7,0.00,21.7,27.0,"23:29:20",1
"21/08/27","23:40",0.0,24.7,82.5,1008.3,338.6,1.3,2.4,343.5,0.00,21.6,27.2,"23:34:48",1
"21/08/27","23:50",0.0,24.6,82.6,1008.3,330.9,1.6,2.4,329.9,0.00,21.5,27.2,"23:48:08",1
"21/08/27","24:00",0.0,24.6,82.6,1008.1,329.1,1.5,2.4,331.6,0.00,21.5,27.2,"23:50:08",1
